Home   Weather   Inukjuak   Past weeks
Flag for Canada

Past Weather in Inukjuak, Quebec, Canada — Yesterday and Last 2 Weeks

Now
30 °F

Sunny.


Feels Like: 16 °F
Forecast: N/A
Wind: 25 mph from Southeast

Location: Inukjuak Airport

Current Time: Apr 24, 2019 at 6:45:00 pm

Latest Report: Apr 24, 2019 at 6:00 pm


Visibility: 9 mi

Pressure: 29.83 "Hg

Humidity: 69%

Dew Point: 21 °F

Location of InukjuakLocation

Past Weather in Inukjuak — Graph

°F

Inukjuak Temperature Yesterday

Maximum temperature yesterday: 21 °F (at 4:00 pm)
Minimum temperature yesterday: -4 °F (at 6:02 am)
Average temperature yesterday: 11 °F

High & Low Weather Summary for the Past Weeks

 TemperatureHumidityPressure
High37 °F (Apr 20, 5:05 pm)100% (Apr 18, 4:39 am)30.60 "Hg (Apr 18, 4:39 am)
Low-13 °F (Apr 12, 7:39 am)50% (Apr 14, 6:00 pm)29.36 "Hg (Apr 20, 8:00 pm)
Average15 °F83%30.02 "Hg
* Reported Apr 9 5:07 pm — Apr 24 5:00 pm, Inukjuak. Weather by CustomWeather, © 2019

Note: Actual official high and low records may vary slightly from our data, if they occured in-between our weather recording intervals... More about our weather records

Advertising

Inukjuak Weather History for the Previous 24 Hours

Scroll right to see more
 ConditionsComfort  
Time TempWeatherWind HumidityBarometerVisibility
5:00 pm
Wed, Apr 24
30 °FSunny.23 mph69%29.87 "Hg9 mi
4:00 pm30 °FSunny.18 mph64%29.90 "Hg9 mi
3:00 pm28 °FSunny.18 mph69%29.93 "Hg9 mi
2:00 pm27 °FSunny.18 mph74%29.97 "Hg9 mi
1:00 pm27 °FSunny.17 mph74%30.00 "Hg9 mi
12:00 pm25 °FSunny.14 mph69%30.01 "Hg9 mi
11:00 am23 °FSunny.17 mph74%30.04 "Hg9 mi
10:00 am21 °FSunny.20 mph74%30.06 "Hg9 mi
9:00 am21 °FSunny.20 mph68%30.08 "Hg9 mi
8:53 am21 °FSunny.16 mph74%30.09 "Hg9 mi
8:00 am14 °FSunny.5 mph79%30.11 "Hg9 mi
7:00 am10 °FSunny.12 mph79%30.11 "Hg9 mi
6:00 am10 °FSunny.6 mph79%30.14 "Hg9 mi
5:00 am12 °FClear.5 mph73%30.15 "Hg9 mi
4:00 am12 °FClear.7 mph79%30.16 "Hg9 mi
3:00 am9 °FClear.6 mph85%30.18 "Hg9 mi
2:00 am10 °FClear.3 mph79%30.20 "Hg9 mi
1:36 am10 °FPassing clouds.5 mph85%30.21 "Hg9 mi
1:00 am10 °FOvercast.5 mph85%30.22 "Hg9 mi
12:00 am12 °FMostly cloudy.8 mph85%30.22 "Hg9 mi
11:00 pm
Tue, Apr 23
18 °FOvercast.8 mph86%30.24 "Hg9 mi
10:26 pm19 °FOvercast.10 mph86%30.24 "Hg9 mi
10:12 pm19 °FLight snow. Overcast.10 mph86%30.25 "Hg9 mi
10:00 pm19 °FOvercast.12 mph86%30.25 "Hg9 mi
9:58 pm19 °FOvercast.10 mph86%30.25 "Hg9 mi
9:26 pm19 °FLow clouds.9 mph86%30.26 "Hg9 mi
9:00 pm19 °FLight snow. Low clouds.12 mph86%30.27 "Hg9 mi
8:56 pm19 °FLight snow. Low clouds.12 mph86%30.27 "Hg9 mi
8:00 pm19 °FOvercast.9 mph86%30.27 "Hg9 mi
7:00 pm19 °FPartly sunny.8 mph86%30.28 "Hg9 mi
6:01 pm21 °FScattered clouds.8 mph80%30.30 "Hg9 mi
Weather by CustomWeather, © 2019

See weather overview